1308873631169,3.60527
1308873691169,3.59409
1308873751169,3.58137
1308873811169,3.59325
1308873871169,3.59040
1308873931169,3.59185
1308873991169,3.59029
1308874051169,3.56824
1308874111169,3.59879
1308874171169,3.60304
1308874231169,3.58484
1308874291169,3.57807
1308874351169,3.61740
1308874411169,3.59801
1308874471169,3.61707
1308874531169,3.61173
1308874591169,3.61052
1308874651169,3.59674
1308874711169,3.59756
1308874771169,3.61267
1308874831169,3.57869
1308874891169,3.64345
1308874951169,3.62600
1308875011169,3.60859
1308875071169,3.59763
1308875131169,3.61917
1308875191169,3.61442
1308875251169,3.61717
1308875311169,3.61107
1308875371169,3.61829
1308875431169,3.55718
1308875491169,3.60720
1308875551169,3.58099
1308875611169,3.59859
1308875671169,3.57931
1308875731169,3.58323
1308875791169,3.57895
1308875851169,3.60836
1308875911169,3.60899
1308875971169,3.59635
1308876031169,3.60150
1308876091169,3.56920
1308876151169,3.60183
1308876211169,3.59938
1308876271169,3.60786
1308876331169,3.58366
1308876391169,3.56496
1308876451169,3.57825
1308876511169,3.59015
1308876571169,3.58507
1308876631169,3.60560
1308876691169,3.59035
1308876751169,3.60229
1308876811169,3.56205
1308876871169,3.58599
1308876931169,3.59475
1308876991169,3.59107
1308877051169,3.63204
1308877111169,3.58203
1308877171169,3.58754
1308877231179,3.59546
1308877291179,3.60838
1308877351179,3.59064
1308877411179,3.61939
1308877471179,3.57342
1308877531179,3.59923
1308877591179,3.57262
1308877651179,3.56993
1308877711179,3.58231
1308877771179,3.55428
1308877831179,3.59477
1308877891179,3.58931
1308877951179,3.58168
1308878011179,3.57951
1308878071179,3.56828
1308878131179,3.58328
1308878191179,3.58232
1308878251179,3.55919
1308878311179,3.56921
1308878371179,3.55984
1308878431179,3.58488
1308878491179,3.57345
1308878551179,3.56402
1308878611179,3.57938
1308878671179,3.56601
1308878731179,3.58916
1308878791179,3.55756
1308878851179,3.53124
1308878911179,3.55711
1308878971179,3.60446
1308879031179,3.56021
1308879091179,3.56320
1308879151179,3.57933
1308879211179,3.57764
1308879271179,3.54889
1308879331179,3.59264
1308879391179,3.54685
1308879451179,3.53475
1308879511179,3.57615
1308879571179,3.56830
1308879631179,3.56579
1308879691179,3.57299
1308879751179,3.56650
1308879811179,3.55637
1308879871179,3.54843
1308879931179,3.56838
1308879991179,3.54631
1308880051179,3.59303
1308880111179,3.58221
1308880171179,3.57659
1308880231179,3.54141
1308880291179,3.54154
1308880351179,3.55121
1308880411179,3.58932
1308880471179,3.59007
1308880531179,3.54428
1308880591179,3.54619
1308880651179,3.54467
1308880711179,3.56309
1308880771179,3.56614
1308880831189,3.57885
1308880891189,3.51712
1308880951189,3.56080
1308881011189,3.54864
1308881071189,3.56763
1308881131189,3.55624
1308881191189,3.57121
1308881251189,3.60770
1308881311189,3.54477
1308881371189,3.55274
1308881431189,3.56507
1308881491189,3.55104
1308881551189,3.54020
1308881611189,3.55400
1308881671189,3.51806
1308881731189,3.57100
1308881791189,3.58087
1308881851189,3.58552
1308881911189,3.56006
1308881971189,3.57071
1308882031189,3.58336
1308882091189,3.58436
1308882151189,3.57931
1308882211189,3.56435
1308882271189,3.58214
1308882331189,3.60014
1308882391189,3.58079
1308882451189,3.57273
1308882511189,3.57702
1308882571189,3.55498
1308882631189,3.56747
1308882691189,3.62383
1308882751189,3.57100
1308882811189,3.57504
1308882871189,3.60701
1308882931189,3.58645
1308882991189,3.56599
1308883051189,3.57078
1308883111189,3.58258
1308883171189,3.57718
1308883231189,3.55985
1308883291189,3.56622
1308883351189,3.55991
1308883411189,3.55913
1308883471189,3.58083
1308883531189,3.59990
1308883591189,3.56777
1308883651189,3.57523
1308883711189,3.58842
1308883771189,3.57024
1308883831189,3.55708
1308883891189,3.58891
1308883951189,3.55501
1308884011189,3.56987
1308884071189,3.58118
1308884131189,3.58310
1308884191189,3.54779
1308884251189,3.53436
1308884311189,3.57200
1308884371189,3.57894
1308884431198,3.56961
1308884491198,3.59024
1308884551198,3.59404
1308884611198,3.56464
1308884671198,3.55643
1308884731198,3.54946
1308884791198,3.54871
1308884851198,3.54429
1308884911198,3.56079
1308884971198,3.59609
1308885031198,3.59329
1308885091198,3.56365
1308885151198,3.55988
1308885211198,3.57853
1308885271198,3.58265
1308885331198,3.57629
1308885391198,3.57760
1308885451198,3.55395
1308885511198,3.58376
1308885571198,3.57089
1308885631198,3.57535
1308885691198,3.57687
1308885751198,3.53580
1308885811198,3.55118
1308885871198,3.57199
1308885931198,3.57031
1308885991198,3.55570
1308886051198,3.58886
1308886111198,3.54330
1308886171198,3.59247
1308886231198,3.55923
1308886291198,3.55003
1308886351198,3.56367
1308886411198,3.57521
1308886471198,3.56777
1308886531198,3.54228
1308886591198,3.55041
1308886651198,3.52125
1308886711198,3.56947
1308886771198,3.53752
1308886831198,3.57793
1308886891198,3.59789
1308886951198,3.55274
1308887011198,3.57010
1308887071198,3.54878
1308887131198,3.55068
1308887191198,3.56213
1308887251198,3.54294
1308887311198,3.56807
1308887371198,3.55175
1308887431198,3.54633
1308887491198,3.57659
1308887551198,3.53959
1308887611198,3.56159
1308887671198,3.56570
1308887731198,3.56151
1308887791198,3.56510
1308887851198,3.56584
1308887911198,3.54334
1308887971198,3.57749
1308888031208,3.53884
1308888091208,3.53601
1308888151208,3.60451
1308888211208,3.57340
1308888271208,3.58080
1308888331208,3.54773
1308888391208,3.58002
1308888451208,3.54650
1308888511208,3.59751
1308888571208,3.55007
1308888631208,3.58949
1308888691208,3.57914
1308888751208,3.57841
1308888811208,3.53820
1308888871208,3.57358
1308888931208,3.53204
1308888991208,3.56896
1308889051208,3.53037
1308889111208,3.55560
1308889171208,3.58045
1308889231208,3.58162
1308889291208,3.52244
1308889351208,3.56533
1308889411208,3.58580
1308889471208,3.57283
1308889531208,3.54043
1308889591208,3.56276
1308889651208,3.55685
1308889711208,3.54842
1308889771208,3.55984
1308889831208,3.53708
1308889891208,3.55438
1308889951208,3.57576
1308890011208,3.56620
1308890071208,3.57269
1308890131208,3.55771
1308890191208,3.57604
1308890251208,3.52967
1308890311208,3.55321
1308890371208,3.57770
1308890431208,3.56802
1308890491208,3.60736
1308890551208,3.55400
1308890611208,3.56962
1308890671208,3.54894
1308890731208,3.57072
1308890791208,3.52135
1308890851208,3.56405
1308890911208,3.57532
1308890971208,3.56749
1308891031208,3.56038
1308891091208,3.56255
1308891151208,3.57726
1308891211208,3.57205
1308891271208,3.58066
1308891331208,3.56430
1308891391208,3.55915
1308891451208,3.59236
1308891511208,3.57554
1308891571208,3.54763
1308891631217,3.55957
1308891691217,3.56727
1308891751217,3.60341
1308891811217,3.60957
1308891871217,3.56305
1308891931217,3.61683
1308891991217,3.59925
1308892051217,3.56893
1308892111217,3.57094
1308892171217,3.55603
1308892231217,3.57297
1308892291217,3.57303
1308892351217,3.57791
1308892411217,3.57891
1308892471217,3.58486
1308892531217,3.55823
1308892591217,3.56251
1308892651217,3.57928
1308892711217,3.57481
1308892771217,3.55951
1308892831217,3.57296
1308892891217,3.56360
1308892951217,3.56349
1308893011217,3.59867
1308893071217,3.58707
1308893131217,3.56093
1308893191217,3.55749
1308893251217,3.59975
1308893311217,3.57131
1308893371217,3.56389
1308893431217,3.57058
1308893491217,3.59352
1308893551217,3.55558
1308893611217,3.57252
1308893671217,3.57819
1308893731217,3.56891
1308893791217,3.60796
1308893851217,3.51854
1308893911217,3.57512
1308893971217,3.55764
1308894031217,3.56273
1308894091217,3.57834
1308894151217,3.58803
1308894211217,3.57169
1308894271217,3.56899
1308894331217,3.57257
1308894391217,3.57760
1308894451217,3.58978
1308894511217,3.60148
1308894571217,3.53816
1308894631217,3.59115
1308894691217,3.55694
1308894751217,3.58645
1308894811217,3.57225
1308894871217,3.56555
1308894931217,3.56873
1308894991217,3.59397
1308895051217,3.59501
1308895111217,3.59271
1308895171217,3.59094
1308895231226,3.57894
1308895291226,3.57883
1308895351226,3.57119
1308895411226,3.61893
1308895471226,3.58097
1308895531226,3.59049
1308895591226,3.57860
1308895651226,3.60077
1308895711226,3.55053
1308895771226,3.61110
1308895831226,3.57950
1308895891226,3.57137
1308895951226,3.59097
1308896011226,3.59807
1308896071226,3.58499
1308896131226,3.57305
1308896191226,3.60493
1308896251226,3.58310
1308896311226,3.55641
1308896371226,3.61092
1308896431226,3.57439
1308896491226,3.61864
1308896551226,3.55539
1308896611226,3.56621
1308896671226,3.58317
1308896731226,3.60239
1308896791226,3.58778
1308896851226,3.58159
1308896911226,3.60845
1308896971226,3.57503
1308897031226,3.57290
1308897091226,3.60488
1308897151226,3.59894
1308897211226,3.60910
1308897271226,3.57147
1308897331226,3.61153
1308897391226,3.58001
1308897451226,3.59094
1308897511226,3.58336
1308897571226,3.58997
1308897631226,3.56791
1308897691226,3.56080
1308897751226,3.60883
1308897811226,3.60315
1308897871226,3.56823
1308897931226,3.52964
1308897991226,3.60096
1308898051226,3.59609
1308898111226,3.56934
1308898171226,3.53263
1308898231226,3.56647
1308898291226,3.59278
1308898351226,3.60171
1308898411226,3.55194
1308898471226,3.59977
1308898531226,3.57846
1308898591226,3.57177
1308898651226,3.54596
1308898711226,3.58350
1308898771226,3.57883
1308898831235,3.59407
1308898891235,3.57350
1308898951235,3.58832
1308899011235,3.61303
1308899071235,3.54617
1308899131235,3.58023
1308899191235,3.56507
1308899251235,3.58982
1308899311235,3.59244
1308899371235,3.56243
1308899431235,3.60026
1308899491235,3.57754
1308899551235,3.55660
1308899611235,3.55797
1308899671235,3.59396
1308899731235,3.57707
1308899791235,3.59597
1308899851235,3.58623
1308899911235,3.56117
1308899971235,3.59981
1308900031235,3.55834
1308900091235,3.56600
1308900151235,3.60058
1308900211235,3.58202
1308900271235,3.58888
1308900331235,3.55933
1308900391235,3.56849
1308900451235,3.57583
1308900511235,3.57737
1308900571235,3.58004
1308900631235,3.58864
1308900691235,3.55368
1308900751235,3.57392
1308900811235,3.57676
1308900871235,3.58835
1308900931235,3.56458
1308900991235,3.54983
1308901051235,3.58031
1308901111235,3.55051
1308901171235,3.58733
1308901231235,3.56517
1308901291235,3.56360
1308901351235,3.58443
1308901411235,3.57449
1308901471235,3.59483
1308901531235,3.58334
1308901591235,3.56968
1308901651235,3.56331
1308901711235,3.59992
1308901771235,3.56888
1308901831235,3.56510
1308901891235,3.57071
1308901951235,3.59207
1308902011235,3.57347
1308902071235,3.56604
1308902131235,3.57869
1308902191235,3.56694
1308902251235,3.57471
1308902311235,3.58586
1308902371235,3.60230
1308902431244,3.57493
1308902491244,3.59818
1308902551244,3.59199
1308902611244,3.60125
1308902671244,3.60122
1308902731244,3.59439
1308902791244,3.60757
1308902851244,3.57696
1308902911244,3.59813
1308902971244,3.59495
1308903031244,3.58026
1308903091244,3.60031
1308903151244,3.57356
1308903211244,3.58840
1308903271244,3.60973
1308903331244,3.58446
1308903391244,3.54648
1308903451244,3.57514
1308903511244,3.55730
1308903571244,3.55723
1308903631244,3.60656
1308903691244,3.55675
1308903751244,3.58140
1308903811244,3.59614
1308903871244,3.60880
1308903931244,3.62888
1308903991244,3.61040
1308904051244,3.61833
1308904111244,3.55097
1308904171244,3.57743
1308904231244,3.59245
1308904291244,3.59170
1308904351244,3.60726
1308904411244,3.59865
1308904471244,3.60397
1308904531244,3.59298
1308904591244,3.59989
1308904651244,3.57371
1308904711244,3.60331
1308904771244,3.58560
1308904831244,3.62957
1308904891244,3.60537
1308904951244,3.61311
1308905011244,3.60066
1308905071244,3.60127
1308905131244,3.74788
1308905191244,3.60386
1308905251244,3.59976
1308905311244,3.57089
1308905371244,3.57343
1308905431244,3.61071
1308905491244,3.58959
1308905551244,3.55961
1308905611244,3.57489
1308905671244,3.59736
1308905731244,3.58606
1308905791244,3.58028
1308905851244,3.59182
1308905911244,3.56916
1308905971244,3.59287
1308906031253,3.56901
1308906091253,3.57120
1308906151253,3.57730
1308906211253,3.61168
1308906271253,3.58457
1308906331253,3.58827
1308906391252,3.58889
1308906451252,3.59100
1308906511252,3.57026
1308906571252,3.53115
1308906631253,3.57946
1308906691253,3.59590
1308906751253,3.56222
1308906811253,3.56109
1308906871253,3.54961
1308906931253,3.58273
1308906991253,3.55114
1308907051253,3.57801
1308907111253,3.59052
1308907171253,3.58039
1308907231253,3.60164
1308907291253,3.56739
1308907351253,3.56447
1308907411253,3.58493
1308907471253,3.56762
1308907531253,3.57151
1308907591253,3.58123
1308907651253,3.57052
1308907711252,3.57034
1308907771252,3.58810
1308907831252,3.58497
1308907891252,3.54217
1308907951252,3.57124
1308908011253,3.60780
1308908071253,3.59977
1308908131253,3.55516
1308908191253,3.56415
1308908251253,3.59824
1308908311253,3.58602
1308908371253,3.58182
1308908431253,3.59471
1308908491253,3.55256
1308908551253,3.54480
1308908611253,3.58109
1308908671253,3.57663
1308908731253,3.61922
1308908791253,3.58782
1308908851253,3.58782
1308908911253,3.56516
1308908971253,3.55828
1308909031253,3.57727
1308909091252,3.55430
1308909151252,3.55967
1308909211252,3.57088
1308909271252,3.57464
1308909331253,3.59386
1308909391253,3.57502
1308909451253,3.57743
1308909511253,3.58446
1308909571253,3.58719
1308909631261,3.58331
1308909691261,3.57699
1308909751261,3.59384
1308909811261,3.60146
1308909871261,3.62426
1308909931261,3.59422
1308909991261,3.56180
1308910051261,3.57875
1308910111261,3.59101
1308910171261,3.59936
1308910231261,3.58237
1308910291261,3.56158
1308910351261,3.59771
1308910411261,3.55093
1308910471261,3.56874
1308910531261,3.57872
1308910591261,3.60138
1308910651261,3.60334
1308910711261,3.58659
1308910771261,3.58139
1308910831261,3.56836
1308910891261,3.58387
1308910951261,3.57814
1308911011261,3.58245
1308911071261,3.60268
1308911131261,3.56474
1308911191261,3.56420
1308911251261,3.56390
1308911311261,3.57770
1308911371261,3.62007
1308911431261,3.61779
1308911491261,3.57929
1308911551261,3.57344
1308911611261,3.58845
1308911671261,3.59530
1308911731261,3.59772
1308911791261,3.55776
1308911851261,3.58246
1308911911261,3.57804
1308911971261,3.56802
1308912031261,3.56905
1308912091261,3.56099
1308912151261,3.57480
1308912211261,3.58020
1308912271261,3.59840
1308912331261,3.55725
1308912391261,3.58952
1308912451261,3.56067
1308912511261,3.59577
1308912571261,3.56925
1308912631261,3.59304
1308912691261,3.55191
1308912751261,3.55834
1308912811261,3.57957
1308912871261,3.56994
1308912931261,3.56300
1308912991261,3.55500
1308913051261,3.55890
1308913111261,3.56187
1308913171261,3.59722
1308913231295,3.54993
1308913291295,3.60373
1308913351295,3.59764
1308913411295,3.57911
1308913471295,3.58447
1308913531295,3.55155
1308913591295,3.53796
1308913651295,3.58030
1308913711295,3.57314
1308913771295,3.56953
1308913831295,3.58566
1308913891295,3.52432
1308913951295,3.57387
1308914011295,3.59063
1308914071295,3.56799
1308914131295,3.58739
1308914191295,3.55201
1308914251295,3.64431
1308914311295,3.54933
1308914371295,3.58714
1308914431295,3.57629
1308914491295,3.58605
1308914551295,3.57630
1308914611295,3.55148
1308914671295,3.56981
1308914731295,3.56514
1308914791295,3.61851
1308914851295,3.58272
1308914911295,3.57113
1308914971295,3.58395
1308915031295,3.56422
1308915091295,3.57367
1308915151295,3.58453
1308915211295,3.60376
1308915271295,3.58520
1308915331295,3.58889
1308915391295,3.59700
1308915451295,3.59874
1308915511295,3.56857
1308915571295,3.59687
1308915631295,3.57712
1308915691295,3.61793
1308915751295,3.58328
1308915811295,3.57442
1308915871295,3.58280
1308915931295,3.58130
1308915991295,3.57447
1308916051295,3.59016
1308916111295,3.59074
1308916171295,3.57369
1308916231295,3.57815
1308916291295,3.58784
1308916351295,3.56267
1308916411295,3.56472
1308916471295,3.57874
1308916531295,3.58427
1308916591295,3.57503
1308916651295,3.57902
1308916711295,3.58274
1308916771295,3.60059
1308916831304,3.61071
1308916891304,3.54594
1308916951304,3.56837
1308917011304,3.57996
1308917071304,3.57843
1308917131304,3.57085
1308917191304,3.59769
1308917251304,3.58920
1308917311304,3.57843
1308917371304,3.59033
1308917431304,3.59846
1308917491304,3.60235
1308917551304,3.58805
1308917611304,3.62703
1308917671304,3.58189
1308917731304,3.58328
1308917791304,3.57827
1308917851304,3.59067
1308917911304,3.57639
1308917971304,3.64841
1308918031304,3.58577
1308918091304,3.59416
1308918151304,3.57078
1308918211304,3.63472
1308918271304,3.60931
1308918331304,3.61475
1308918391304,3.58281
1308918451304,3.61379
1308918511304,3.59536
1308918571304,3.57557
1308918631304,3.58117
1308918691304,3.60233
1308918751304,3.61292
1308918811304,3.58335
1308918871304,3.59820
1308918931304,3.61068
1308918991304,3.62832
1308919051304,3.61584
1308919111304,3.58234
1308919171304,3.61064
1308919231304,3.62920
1308919291304,3.62665
1308919351304,3.64006
1308919411304,3.61127
1308919471304,3.59768
1308919531304,3.63922
1308919591304,3.58184
1308919651304,3.61503
1308919711304,3.59049
1308919771304,3.59130
1308919831304,3.62196
1308919891304,3.61229
1308919951304,3.61632
1308920011304,3.63906
1308920071304,3.60711
1308920131304,3.59892
1308920191304,3.62925
1308920251304,3.62004
1308920311304,3.62753
1308920371304,3.60762
1308920431313,3.60165
1308920491313,3.58982
1308920551313,3.62468
1308920611313,3.60199
1308920671313,3.59469
1308920731313,3.64278
1308920791313,3.62400
1308920851313,3.63486
1308920911313,3.61648
1308920971313,3.61935
1308921031313,3.60067
1308921091313,3.61323
1308921151313,3.61902
1308921211313,3.61789
1308921271313,3.62867
1308921331313,3.60770
1308921391313,3.64317
1308921451313,3.62412
1308921511313,3.62897
1308921571313,3.62814
1308921631313,3.62998
1308921691313,3.61863
1308921751313,3.65034
1308921811313,3.62170
1308921871313,3.60910
1308921931313,3.61256
1308921991313,3.61053
1308922051313,3.61536
1308922111313,3.63479
1308922171313,3.60566
1308922231313,3.62850
1308922291313,3.66248
1308922351313,3.63337
1308922411313,3.66014
1308922471313,3.61418
1308922531313,3.62331
1308922591313,3.62563
1308922651313,3.60257
1308922711313,3.65619
1308922771313,3.62905
1308922831313,3.62266
1308922891313,3.63550
1308922951313,3.60573
1308923011313,3.64596
1308923071313,3.62842
1308923131313,3.64067
1308923191313,3.63420
1308923251313,3.61871
1308923311313,3.64545
1308923371313,3.60371
1308923431313,3.64049
1308923491313,3.65294
1308923551313,3.67859
1308923611313,3.59163
1308923671313,3.64669
1308923731313,3.60744
1308923791313,3.67624
1308923851313,3.67514
1308923911313,3.67624
1308923971313,3.61513
1308924031322,3.63029
1308924091322,3.65002
1308924151322,3.67658
1308924211322,3.62800
1308924271322,3.65266
1308924331322,3.61727
1308924391322,3.65098
1308924451322,3.62177
1308924511322,3.65892
1308924571322,3.65132
1308924631322,3.65860
1308924691322,3.64036
1308924751322,3.65938
1308924811322,3.65829
1308924871322,3.64630
1308924931322,3.65246
1308924991322,3.63908
1308925051322,3.62884
1308925111322,3.66046
1308925171322,3.64273
1308925231322,3.64467
1308925291322,3.64329
1308925351322,3.64294
1308925411322,3.63658
1308925471322,3.65421
1308925531322,3.65708
1308925591322,3.62116
1308925651322,3.61399
1308925711322,3.64969
1308925771322,3.67368
1308925831322,3.63630
1308925891322,3.62884
1308925951322,3.64197
1308926011322,3.63012
1308926071322,3.62749
1308926131322,3.65202
1308926191322,3.64480
1308926251322,3.65706
1308926311322,3.61108
1308926371322,3.64984
1308926431322,3.62380
1308926491322,3.61673
1308926551322,3.65912
1308926611322,3.64392
1308926671322,3.63205
1308926731322,3.65353
1308926791322,3.63538
1308926851322,3.64083
1308926911322,3.62945
1308926971322,3.62700
1308927031322,3.63672
1308927091322,3.61473
1308927151322,3.63407
1308927211322,3.65079
1308927271322,3.61650
1308927331322,3.62518
1308927391322,3.61415
1308927451322,3.65759
1308927511322,3.66649
1308927571322,3.67430
1308927631331,3.64233
1308927691331,3.62605
1308927751331,3.63291
1308927811331,3.61998
1308927871331,3.61900
1308927931331,3.64299
1308927991331,3.60787
1308928051331,3.65112
1308928111331,3.64486
1308928171331,3.64103
1308928231331,3.64024
1308928291331,3.62757
1308928351331,3.62466
1308928411331,3.61758
1308928471331,3.65787
1308928531331,3.65152
1308928591331,3.61839
1308928651331,3.65068
1308928711331,3.66206
1308928771331,3.63905
1308928831331,3.60988
1308928891331,3.63119
1308928951331,3.60668
1308929011331,3.63205
1308929071331,3.64848
1308929131331,3.62272
1308929191331,3.60336
1308929251331,3.60027
1308929311331,3.60828
1308929371331,3.63328
1308929431331,3.64068
1308929491331,3.60235
1308929551331,3.63719
1308929611331,3.67272
1308929671331,3.64468
1308929731331,3.62319
1308929791331,3.60592
1308929851331,3.62851
1308929911331,3.61678
1308929971331,3.62026
1308930031331,3.66247
1308930091331,3.61291
1308930151331,3.63927
1308930211331,3.67385
1308930271331,3.64924
1308930331331,3.66615
1308930391331,3.64859
1308930451331,3.63561
1308930511331,3.64334
1308930571331,3.69814
1308930631331,3.68436
1308930691331,3.63284
1308930751331,3.68234
1308930811331,3.64430
1308930871331,3.64355
1308930931331,3.64367
1308930991331,3.61672
1308931051331,3.63985
1308931111331,3.67140
1308931171331,3.61649
1308931231340,3.62101
1308931291340,3.64363
1308931351340,3.65979
1308931411340,3.64029
1308931471340,3.61461
1308931531340,3.63715
1308931591340,3.62180
1308931651340,3.61658
1308931711340,3.62778
1308931771340,3.61689
1308931831340,3.60999
1308931891340,3.62781
1308931951340,3.63798
1308932011340,3.61079
1308932071340,3.62699
1308932131340,3.65999
1308932191340,3.60265
1308932251340,3.60312
1308932311340,3.60253
1308932371340,3.59653
1308932431340,3.58798
1308932491340,3.62226
1308932551340,3.63671
1308932611340,3.60285
1308932671340,3.60860
1308932731340,3.61004
1308932791340,3.62163
1308932851340,3.59727
1308932911340,3.62727
1308932971340,3.65883
1308933031340,3.66275
1308933091340,3.64520
1308933151340,3.64349
1308933211340,3.60619
1308933271340,3.62273
1308933331340,3.63145
1308933391340,3.64424
1308933451340,3.64062
1308933511340,3.60633
1308933571340,3.61876
1308933631340,3.63142
1308933691340,3.60030
1308933751340,3.60301
1308933811340,3.62186
1308933871340,3.61663
1308933931340,3.62114
1308933991340,3.62707
1308934051340,3.61221
1308934111340,3.62619
1308934171340,3.60204
1308934231340,3.62090
1308934291340,3.64625
1308934351340,3.63706
1308934411340,3.62052
1308934471340,3.62464
1308934531340,3.64729
1308934591340,3.62346
1308934651340,3.63594
1308934711340,3.62242
1308934771340,3.64326
1308934831350,3.62678
1308934891350,3.63129
1308934951350,3.64754
1308935011350,3.59649
1308935071350,3.64793
1308935131350,3.63061
1308935191350,3.60208
1308935251350,3.61930
1308935311350,3.64434
1308935371350,3.61394
1308935431350,3.64594
1308935491350,3.65252
1308935551350,3.62140
1308935611350,3.62908
1308935671350,3.62294
1308935731350,3.64794
1308935791350,3.61999
1308935851350,3.61210
1308935911350,3.64986
1308935971350,3.64728
1308936031350,3.62862
1308936091350,3.62180
1308936151350,3.63324
1308936211350,3.63030
1308936271350,3.61926
1308936331350,3.62964
1308936391350,3.61334
1308936451350,3.63206
1308936511350,3.61045
1308936571350,3.59832
1308936631350,3.64517
1308936691350,3.63966
1308936751350,3.65252
1308936811350,3.66313
1308936871350,3.63459
1308936931350,3.66306
1308936991350,3.62732
1308937051350,3.62402
1308937111350,3.64521
1308937171350,3.61982
1308937231350,3.64336
1308937291350,3.63714
1308937351350,3.61165
1308937411350,3.62590
1308937471350,3.63028
1308937531350,3.60829
1308937591350,3.65030
1308937651350,3.62787
1308937711350,3.65498
1308937771350,3.64664
1308937831350,3.61033
1308937891350,3.64660
1308937951350,3.63829
1308938011350,3.63308
1308938071350,3.66386
1308938131350,3.62734
1308938191350,3.61178
1308938251350,3.63150
1308938311350,3.65306
1308938371350,3.65396
1308938431360,3.62701
1308938491360,3.60270
1308938551360,3.64202
1308938611360,3.61120
1308938671360,3.63160
1308938731360,3.63881
1308938791360,3.59814
1308938851360,3.61397
1308938911360,3.63057
1308938971360,3.64547